EW6500 Weather Reports


time (UTC)temp
C
wind
direction
speed
KPH
gust
KPH
rain 1hr
cm
rain 24hr
cm
rain mn
cm
humidity
%
barometer
mb
20260509013039 13 65 4.8 12.9 0.00 0.00 0.00 65 1028.9
20260509011536 13 67 1.6 14.5 0.00 0.00 0.00 66 1029.0
20260509010032 12 70 4.8 9.7 0.00 0.00 0.00 68 1029.2
20260509004537 12 62 3.2 14.5 0.00 0.00 0.00 68 1029.2
20260509003030 11 38 1.6 11.3 0.00 0.00 0.00 72 1029.1
20260509001529 10 43 1.6 8.0 0.00 0.00 0.00 75 1029.1
20260509000036 9 78 1.6 11.3 0.00 0.00 0.00 76 1029.1
20260508234536 8 76 1.6 6.4 0.00 0.00 0.00 78 1029.1
20260508233027 8 81 0.0 3.2 0.00 0.00 0.00 78 1029.2
20260508231524 8 81 0.0 3.2 0.00 0.00 0.00 77 1029.1
20260508230020 8 81 0.0 1.6 0.00 0.00 0.00 76 1028.9
20260508224518 9 81 0.0 3.2 0.00 0.00 0.00 74 1028.8
20260508223017 9 73 1.6 12.9 0.00 0.00 0.00 75 1028.5
20260508221516 9 92 1.6 11.3 0.00 0.00 0.00 75 1028.2
20260508220013 9 74 0.0 8.0 0.00 0.00 0.00 75 1028.3
20260508214515 9 54 1.6 9.7 0.00 0.00 0.00 75 1028.2
20260508213020 9 65 1.6 8.0 0.00 0.00 0.00 74 1028.2
20260508211509 10 71 0.0 4.8 0.00 0.00 0.00 73 1028.3
20260508210008 10 63 1.6 6.4 0.00 0.00 0.00 73 1028.1
20260508204504 10 82 0.0 4.8 0.00 0.00 0.00 72 1028.0
20260508203100 10 84 3.2 9.7 0.00 0.00 0.00 72 1027.8
20260508201607 10 74 6.4 12.9 0.00 0.00 0.00 71 1027.9
20260508200057 10 82 3.2 16.1 0.00 0.00 0.00 71 1027.7
20260508194621 10 80 1.6 12.9 0.00 0.00 0.00 71 1027.7
20260508193106 10 88 3.2 9.7 0.00 0.00 0.00 71 1027.8
20260508191554 10 49 3.2 11.3 0.00 0.00 0.00 71 1027.7
20260508190050 11 76 3.2 8.0 0.00 0.00 0.00 70 1027.6
20260508184547 11 65 3.2 14.5 0.00 0.00 0.00 70 1027.8
20260508183047 11 86 3.2 11.3 0.00 0.00 0.00 70 1027.9
20260508181606 11 84 3.2 9.7 0.00 0.00 0.00 69 1027.9
20260508180053 11 49 0.0 8.0 0.00 0.00 0.00 69 1027.9
20260508174544 11 50 1.6 9.7 0.00 0.00 0.00 68 1028.0
20260508173042 12 72 4.8 14.5 0.00 0.00 0.00 67 1027.8
20260508171537 12 65 3.2 14.5 0.00 0.00 0.00 67 1027.7
20260508170037 12 63 4.8 12.9 0.00 0.00 0.00 66 1027.7
20260508164533 12 84 3.2 11.3 0.00 0.00 0.00 66 1027.7
20260508163032 12 67 3.2 9.7 0.00 0.00 0.00 66 1027.7
20260508161532 12 94 3.2 6.4 0.00 0.00 0.00 66 1027.7
20260508160030 12 62 1.6 12.9 0.00 0.00 0.00 65 1027.8
20260508154530 12 70 1.6 8.0 0.00 0.00 0.00 64 1027.8
20260508153039 13 57 3.2 8.0 0.00 0.00 0.00 63 1027.9
20260508151529 13 79 0.0 12.9 0.00 0.00 0.00 62 1028.0
20260508150025 13 60 0.0 8.0 0.00 0.00 0.00 60 1028.2
20260508144524 14 47 1.6 8.0 0.00 0.00 0.00 60 1028.2
20260508143026 14 48 1.6 9.7 0.00 0.00 0.00 59 1028.3
20260508141523 14 64 0.0 8.0 0.00 0.00 0.00 58 1028.3
20260508140026 15 59 1.6 14.5 0.00 0.00 0.00 57 1028.2
20260508134521 15 15 3.2 8.0 0.00 0.00 0.00 56 1028.1
20260508133022 15 53 3.2 14.5 0.00 0.00 0.00 56 1027.9
20260508131520 15 87 3.2 16.1 0.00 0.00 0.00 55 1027.8
20260508130025 16 82 1.6 9.7 0.00 0.00 0.00 55 1027.7
20260508124520 15 84 1.6 9.7 0.00 0.00 0.00 55 1027.8
20260508123019 15 30 3.2 12.9 0.00 0.00 0.00 56 1027.7
20260508121519 15 103 1.6 4.8 0.00 0.00 0.00 56 1027.7
20260508120018 16 84 1.6 9.7 0.00 0.00 0.00 56 1027.8
20260508114518 15 355 1.6 11.3 0.00 0.00 0.00 58 1027.7
20260508113019 15 81 0.0 8.0 0.00 0.00 0.00 60 1027.9
20260508111516 15 65 1.6 6.4 0.00 0.00 0.00 60 1027.8
20260508110017 15 64 0.0 3.2 0.00 0.00 0.00 62 1027.7
20260508104521 15 64 0.0 3.2 0.00 0.00 0.00 61 1027.6
20260508103018 16 64 0.0 0.0 0.00 0.00 0.00 59 1027.6
20260508101515 16 64 0.0 0.0 0.00 0.00 0.00 58 1027.6
20260508100018 17 64 0.0 3.2 0.00 0.00 0.00 55 1027.4
20260508094514 18 55 0.0 12.9 0.00 0.00 0.00 53 1027.3
20260508093021 18 84 0.0 9.7 0.00 0.00 0.00 52 1027.3
20260508091519 19 64 3.2 9.7 0.00 0.00 0.00 50 1027.3
20260508090016 20 42 1.6 12.9 0.00 0.00 0.00 51 1027.2
20260508084511 20 61 4.8 14.5 0.00 0.00 0.00 49 1027.1
20260508083011 20 85 8.0 20.9 0.00 0.00 0.00 48 1027.1
20260508081508 21 74 3.2 9.7 0.00 0.00 0.00 50 1027.2
20260508080007 20 60 3.2 12.9 0.00 0.00 0.00 51 1027.2
20260508074507 21 90 6.4 19.3 0.00 0.00 0.00 49 1027.4
20260508073007 21 49 3.2 12.9 0.00 0.00 0.00 51 1027.4
20260508071503 21 75 4.8 14.5 0.00 0.00 0.00 49 1027.4
20260508070005 21 54 3.2 16.1 0.00 0.00 0.00 52 1027.3
20260508064502 21 59 3.2 17.7 0.00 0.00 0.00 53 1027.4
20260508063101 21 94 4.8 14.5 0.00 0.00 0.00 52 1027.5
20260508061601 21 49 6.4 19.3 0.00 0.00 0.00 53 1027.5
20260508060057 21 73 3.2 17.7 0.00 0.00 0.00 55 1027.7
20260508054558 21 40 3.2 12.9 0.00 0.00 0.00 56 1028.0
20260508053055 21 61 4.8 17.7 0.00 0.00 0.00 56 1028.1
20260508051547 21 87 4.8 14.5 0.00 0.00 0.00 55 1028.4
20260508050043 20 77 3.2 16.1 0.00 0.00 0.00 56 1028.6
20260508044558 20 82 4.8 16.1 0.00 0.00 0.00 59 1028.9
20260508043044 20 107 6.4 19.3 0.00 0.00 0.00 58 1029.2
20260508041534 19 21 4.8 16.1 0.00 0.00 0.00 60 1029.3
20260508040033 19 78 11.3 22.5 0.00 0.00 0.00 58 1029.8
20260508034538 19 79 8.0 20.9 0.00 0.00 0.00 58 1030.1
20260508033029 19 59 3.2 17.7 0.00 0.00 0.00 63 1030.3
20260508031525 18 355 3.2 14.5 0.00 0.00 0.00 64 1030.4
20260508030024 18 79 6.4 20.9 0.00 0.00 0.00 64 1030.5
20260508024527 18 62 3.2 9.7 0.00 0.00 0.00 65 1030.7
20260508023021 17 74 3.2 12.9 0.00 0.00 0.00 69 1031.1
20260508021517 17 60 3.2 12.9 0.00 0.00 0.00 69 1031.3
20260508020013 16 69 3.2 12.9 0.00 0.00 0.00 71 1031.4
20260508014513 16 67 4.8 14.5 0.00 0.00 0.00 71 1031.6